sat.trackr.live / text

‹ back to catalog

GONETS-M 4

NORAD 38736 · 2012-041D

PAYLOAD ACTIVE UNKNOWN

§ Identity

Operator
Country
CIS
Launch date
2012-07-28
Launch site
PLMSC
Launch vehicle
Mass (kg)
RCS (m²)
1.70

External: N2YO · Heavens-Above · Gunter

§ Orbital elements

Epoch: 2026-09-20T04:15:00.741888Z

Period
115.76 min
Inclination
82.4844°
Eccentricity
0.0025131
Mean motion
12.43907611 rev/d
Perigee alt
1,470.3 km
Apogee alt
1,509.9 km
Semi-major
7,868.2 km
B*
6.9293e-4
RAAN
11.4469°
Arg perigee
203.5106°
Mean anomaly
156.4827°
Rev number
63,476

§ Raw data

GONETS-M 41 38736U 12041D   26263.17709192  .00000107  00000+0  69293-3 0  99992 38736  82.4844  11.4469 0025131 203.5106 156.4827 12.43907611634766

JSON: /api/v1/satellites/38736 · /tle

For live sub-satellite position, see the globe view (requires WebGL).

§ Visibility from observer

Set your observer location to see the next 7 days of passes ≥ 10°. The values pass through the URL so the page stays shareable.

No JS? Fill the form by hand. The geolocation button needs JavaScript.